68P/Klemola (2009)

Japanese version
Home page
Total 6,336 html files since Dec. 4, 1995
Updated on August 10, 2008

---------------------------------------------------------------------

* Profile

* Pictures

* Orbital Elements

The following orbital elements are taken from MPC 56802:

Epoch 2009 Jan. 9.0 TT = JDT 2454840.5
T 2009 Jan. 20.9792 TT                                  MPC
q   1.759028             (2000.0)            P               Q
n   0.0910145      Peri.  153.9791      +0.8606056      +0.5090288
a   4.894731       Node   175.3299      -0.4944541      +0.8425657
e   0.640628       Incl.   11.1441      -0.1219556      +0.1759906
P  10.8
From 182 observations 1965-1998, mean residual 1".0.

* Finding Charts

* Magnitudes Graph

        m1 = 7.7 + 5 log d + 20.5 log r(t + 60)

---------------------------------------------------------------------

The orbital elements are published at the MPC Ephemerides and Orbital Elements.
The charts are made with StellaNavigator Ver.8 (AstroArts).
The magnitudes graphs are made with Comet for Windows.

---------------------------------------------------------------------

Copyright(C) 1995-2008 Seiichi Yoshida (comet@aerith.net). All rights reserved.